{"data":{"norad_id":62047,"intl_designator":"2024-216R","name":"STARLINK-32630","alt_names":[],"object_type":"PAYLOAD","status":"ACTIVE","operator":null,"country":"US","launch_date":"2024-11-21","launch_site_code":"AFETR","launch_vehicle":null,"mission":null,"orbit_class":"UNKNOWN","rcs_meters":null,"size_class":null,"mass_kg":null,"dimensions":null,"purposes":["comms"],"wikipedia_slug":null,"has_3d_model":false,"image_url":null,"decayed_at":null,"tle_current":{"epoch":"2026-05-25T03:18:33.251904Z","epoch_age_seconds":56280,"freshness":"FRESH","line1":"1 62047U 24216R   26145.13788486  .00014845  00000+0  54774-3 0  9998","line2":"2 62047  42.9984 191.8254 0001621 277.9796  82.0872 15.27587852 85486","mean_motion":15.27587852,"eccentricity":0.0001621,"inclination_deg":42.9984,"raan_deg":191.8254,"arg_perigee_deg":277.9796,"mean_anomaly_deg":82.0872,"bstar":0.00054774,"rev_number":8548,"period_min":94.266264170318,"perigee_km":481.91338997269,"apogee_km":484.13777888256,"semimajor_km":6861.1625844276,"source":"CELESTRAK","updated_at":"2026-05-25T13:38:19.527001Z"}}}